Temperature
23 22 21 21 20 21 23 27 30 30 29 29 29 28 27 26 25 23 23 23 23 23 22 22 21 21 21 21 21 21 21 21 21 21 21 21 21 20 20 20 20 20 20 20 20 20 20 20 20
24 23 22 21 22 23 25 28 29 29 29 29 29 28 27 25 23 22 22 23 23 23 22 22 22 21 21 21 21 21 21 21 21 21 21 21 21 21 20 20 20 20 20 20 20 20 20 20 20
24 23 22 21 23 24 26 28 28 30 30 30 29 28 27 25 23 23 24 23 23 23 23 22 22 21 21 21 21 21 21 21 21 21 21 20 20 20 20 20 20 20 20 20 20 20 20 20 20
25 23 23 22 24 25 27 28 29 29 29 29 28 27 26 25 25 25 24 24 24 23 23 22 22 22 21 21 21 21 21 21 21 21 20 20 20 20 20 20 20 20 20 20 20 20 20 20 20
25 24 23 23 25 27 28 29 29 29 29 28 27 25 25 26 26 25 24 24 24 24 23 22 22 22 22 21 21 21 21 21 21 21 20 20 20 20 20 20 20 20 20 20 20 20 20 20 20
25 23 23 24 26 28 28 29 29 28 28 27 26 25 24 25 26 25 24 24 24 24 23 23 22 22 22 21 21 21 21 21 21 21 20 20 20 20 20 20 20 19 19 19 19 19 19 19 19
26 23 24 25 26 27 29 30 29 28 27 27 27 24 24 24 25 25 24 24 24 24 24 23 23 22 22 22 21 21 21 21 21 21 21 20 20 20 20 20 20 19 19 19 19 19 19 19 19
28 23 25 25 27 28 29 30 30 28 27 27 27 25 24 24 24 24 24 24 24 24 24 23 23 23 22 22 22 21 21 21 21 21 21 20 20 20 20 19 19 19 19 19 19 19 19 19 19
28 23 23 25 27 28 30 30 29 29 28 27 27 28 27 26 25 24 23 23 23 23 23 23 23 23 22 22 22 21 21 21 21 21 20 20 20 20 20 19 19 19 19 19 19 19 19 19 19
27 22 24 27 28 28 29 29 28 27 26 26 27 28 27 26 25 24 23 23 23 23 23 23 23 23 22 22 21 21 21 21 21 20 20 20 20 20 19 19 19 19 18 18 18 18 19 19 19
27 25 26 28 30 30 29 30 29 27 25 26 27 27 27 26 25 25 24 24 24 23 23 23 23 23 22 22 21 21 21 21 20 20 20 20 20 19 19 19 19 19 18 18 18 18 18 18 18
27 26 28 29 31 30 30 30 28 28 28 29 29 29 27 26 26 25 25 24 24 23 23 23 23 22 22 22 21 21 21 20 20 20 20 19 19 19 19 19 18 18 18 18 18 18 18 18 18
26 27 29 30 30 31 31 29 29 29 30 29 28 27 27 26 26 25 25 24 24 23 23 23 22 22 22 21 21 20 20 20 20 20 19 19 19 19 19 18 18 18 18 18 18 18 18 18 18
26 27 28 29 30 30 29 28 27 28 28 27 26 26 25 25 25 25 24 24 23 23 23 23 22 22 21 21 21 20 20 20 19 19 19 19 19 18 18 18 18 18 18 18 18 18 17 17 17
28 25 25 27 28 29 29 26 27 28 27 26 25 25 24 24 24 24 24 23 22 22 22 22 22 21 21 21 20 20 20 19 19 19 19 19 19 19 18 18 18 18 18 18 17 17 17 17 17
25 25 24 26 27 28 28 25 26 27 26 24 24 23 23 23 23 23 23 23 22 22 21 21 20 20 20 20 20 20 20 19 19 19 19 19 19 19 18 18 18 18 18 17 17 17 17 17 17
23 23 24 26 27 27 26 24 24 25 24 23 22 22 22 22 22 22 22 22 21 21 20 19 19 20 20 20 20 20 19 19 19 19 19 19 19 19 19 18 18 18 17 17 17 17 17 17 17
23 24 25 26 27 27 25 23 23 23 23 21 21 20 20 19 20 21 21 20 20 19 19 18 19 19 19 19 19 19 19 19 19 19 19 19 19 19 19 19 18 18 18 17 17 17 17 17 17
26 26 25 26 27 26 24 23 22 22 21 19 18 18 18 18 19 19 19 20 19 18 18 18 18 18 18 18 18 18 18 19 19 19 19 19 19 19 19 19 19 18 18 18 18 17 17 17 17
26 26 25 26 27 26 23 22 21 20 19 18 17 17 17 17 18 19 19 19 19 18 18 18 18 17 18 18 18 18 18 18 18 18 19 19 19 19 19 19 18 18 18 18 18 18 17 17 17
27 26 26 26 25 24 23 21 19 19 18 17 17 16 16 17 17 17 18 18 18 18 18 18 18 17 17 18 18 18 18 18 18 18 18 18 18 18 18 18 18 18 18 18 18 18 18 17 17
25 27 26 25 23 21 22 20 18 18 17 17 16 16 15 16 16 16 16 17 17 17 17 17 17 17 17 17 17 18 18 18 17 17 17 17 17 18 18 18 18 18 18 18 18 18 17 17 17
27 26 25 24 23 20 20 19 18 17 17 16 16 15 15 15 16 16 16 16 16 16 16 16 16 16 17 17 17 17 17 17 17 17 17 17 17 17 17 17 17 17 17 17 17 17 17 17 17
27 24 22 19 19 20 19 18 17 16 16 16 16 15 15 16 16 16 16 16 16 16 16 16 16 16 16 16 16 16 16 16 17 16 16 16 16 16 16 16 16 16 16 16 16 17 17 17 16
25 21 20 20 18 19 18 18 17 16 16 16 15 15 16 16 16 16 16 16 16 16 15 15 15 15 15 15 15 15 15 15 15 15 15 15 15 15 16 15 16 16 16 16 16 16 16 16 16
25 22 20 20 19 18 18 17 16 16 16 16 16 16 16 16 16 16 16 16 15 15 15 15 15 15 15 15 14 14 14 14 14 14 14 14 14 14 14 14 15 15 15 15 15 15 15 15 15
24 22 21 19 20 18 17 17 16 16 16 16 16 16 16 16 16 16 16 15 15 15 15 15 14 14 14 14 14 13 13 13 13 13 13 13 13 13 13 13 13 14 14 14 14 14 14 14 15
23 22 19 19 19 19 18 17 16 16 15 16 16 16 16 16 16 16 16 16 15 15 15 14 14 14 13 13 13 13 12 12 12 12 12 12 12 12 12 12 12 12 13 13 13 13 13 14 14
23 22 19 17 18 18 18 17 17 16 15 15 15 16 16 16 16 16 16 16 15 15 14 14 14 13 13 13 12 12 12 12 11 11 11 11 11 11 11 11 11 11 12 12 12 12 12 13 13
22 22 19 19 19 17 16 16 17 16 16 16 16 16 17 17 16 16 16 15 15 14 14 14 13 13 13 12 12 12 12 11 11 11 11 11 10 10 10 10 10 11 11 11 11 11 11 12 12
Wind_Speed
10 9 4 2 1 1 5 4 1 5 6 7 11 11 9 5 4 5 6 18 21 20 19 23 24 23 22 20 20 19 18 18 18 17 17 16 16 16 16 15 14 14 13 12 12 11 11 10 10
7 6 2 1 2 3 5 2 5 4 8 9 10 9 8 7 8 10 8 18 22 20 19 21 24 23 22 21 20 19 18 18 17 17 17 16 16 15 15 14 13 13 12 11 11 10 10 9 8
5 5 3 2 1 2 5 4 3 3 5 5 6 6 6 7 9 7 11 20 20 16 17 22 25 24 23 21 20 19 19 18 17 17 16 16 15 15 14 13 13 12 12 11 10 10 9 8 7
4 3 1 2 3 5 4 6 2 3 6 7 8 6 4 5 7 12 20 21 20 15 16 22 25 24 23 22 21 20 19 18 17 17 16 15 15 14 14 13 12 12 11 11 10 10 9 8 8
3 3 2 1 5 5 4 4 2 0 3 6 9 6 4 4 18 23 21 21 20 15 15 21 25 24 23 22 21 20 19 18 18 17 16 15 15 14 14 13 12 12 11 11 11 10 10 10 9
2 3 2 3 6 5 5 5 1 3 6 6 8 6 3 11 20 21 20 19 19 19 15 19 25 24 23 22 21 20 19 19 18 17 16 16 15 14 14 13 13 13 12 12 12 12 11 11 11
4 2 4 5 5 6 6 4 3 4 6 5 7 7 5 11 16 19 18 17 17 17 15 14 19 22 23 22 21 20 20 19 18 18 17 16 16 15 14 14 14 14 14 14 14 14 14 13 13
6 3 3 3 5 6 5 3 3 5 3 5 6 9 8 12 14 16 16 16 16 15 15 12 14 16 17 19 21 21 20 19 19 18 18 17 16 15 15 15 15 16 16 16 16 16 15 15 15
3 2 5 5 5 6 4 3 2 4 5 3 3 8 11 16 16 17 14 13 13 14 13 13 12 12 14 15 19 20 20 19 19 18 18 17 14 14 14 16 17 18 18 19 18 18 17 16 16
5 4 9 8 7 6 6 3 5 6 6 4 4 7 15 17 17 19 18 18 17 16 15 13 13 12 12 14 14 14 15 15 16 14 15 14 13 14 14 16 19 20 21 21 21 20 18 17 13
4 7 9 11 11 6 4 3 5 10 6 10 15 17 18 16 17 19 19 19 19 17 16 15 14 13 12 9 9 9 10 11 13 14 15 13 12 11 12 10 12 15 17 16 16 17 14 13 11
5 10 9 9 8 4 4 2 3 7 11 14 19 21 19 17 17 17 17 18 16 17 17 16 15 13 12 9 7 8 7 7 9 13 15 11 6 6 6 6 7 7 8 7 8 7 10 11 13
6 8 9 9 9 5 3 3 2 4 6 11 12 12 12 12 10 9 10 12 14 16 17 17 15 14 12 10 8 9 8 8 10 11 13 13 7 7 5 4 4 5 5 5 4 5 7 8 8
7 10 12 11 10 6 3 5 2 4 6 11 11 10 7 6 5 5 4 6 9 11 13 14 14 13 11 9 8 7 6 6 7 7 10 12 8 5 5 4 3 3 4 4 4 6 6 6 5
7 10 12 10 8 7 4 7 6 6 8 10 10 8 6 4 4 4 3 3 1 1 5 10 11 10 10 9 8 5 4 4 3 4 7 9 8 5 4 3 3 3 4 4 3 3 3 4 4
7 6 7 12 8 9 1 7 10 3 9 8 7 6 6 6 6 6 6 5 4 5 4 2 6 4 5 5 5 3 2 2 2 3 5 6 7 6 4 3 2 2 2 1 1 2 2 3 3
4 4 9 12 7 5 3 3 4 3 8 7 6 6 8 9 10 11 12 8 6 5 4 4 3 2 1 1 2 2 2 2 2 3 4 4 5 5 3 3 2 1 1 1 1 1 1 2 3
7 7 7 8 7 5 6 5 6 7 8 8 8 8 11 12 10 11 12 11 10 7 5 4 6 6 5 2 3 2 1 0 1 2 4 5 5 5 3 3 2 2 2 1 0 1 1 2 3
7 4 6 6 5 7 10 11 10 11 12 12 10 10 10 9 8 9 9 10 9 6 6 5 6 4 2 1 1 1 2 2 2 3 5 6 6 5 4 3 3 3 2 1 1 1 0 1 1
2 4 5 6 8 7 9 11 12 15 13 11 10 8 7 6 7 7 7 7 6 3 4 5 3 2 2 0 1 2 1 2 2 2 3 5 6 6 5 5 4 3 3 2 1 2 1 1 0
3 2 3 3 6 8 7 7 9 10 13 14 12 9 8 8 7 7 7 7 6 5 3 3 3 2 2 2 0 0 2 2 2 1 1 3 4 5 5 6 5 4 3 3 3 3 3 2 1
3 2 2 4 5 4 4 1 5 6 10 13 11 10 9 8 7 7 7 8 8 6 6 5 4 3 3 3 2 2 1 0 1 2 2 2 3 3 4 5 6 6 4 4 4 4 3 3 2
2 1 3 3 3 3 5 4 3 4 7 8 7 8 8 6 6 7 8 8 8 7 6 6 6 6 5 4 4 3 2 1 2 1 2 2 2 2 2 4 4 5 5 5 5 4 4 4 4
1 6 7 7 6 3 2 3 3 2 1 2 4 6 5 4 5 6 6 6 6 6 6 6 7 7 7 7 6 6 5 4 4 5 4 4 3 3 4 3 3 4 4 5 5 6 6 5 5
5 6 5 6 5 3 1 4 3 1 2 3 3 3 2 3 4 4 4 4 4 4 4 4 5 5 5 5 6 6 5 5 5 4 4 4 4 4 4 3 2 2 3 4 4 5 6 6 6
2 7 5 3 4 3 2 1 2 2 1 2 3 3 2 2 3 3 3 3 2 2 2 2 3 2 3 3 3 4 4 3 3 4 4 4 3 4 5 5 4 4 4 4 4 4 6 6 7
3 2 5 6 0 1 0 0 2 2 2 2 2 3 2 2 3 3 2 3 3 3 2 2 2 1 1 2 2 3 3 3 4 4 4 4 4 5 5 5 6 6 5 5 5 5 6 6 7
3 2 6 4 2 2 1 2 3 5 5 4 3 3 2 1 2 2 3 3 4 4 3 2 2 3 3 3 3 3 4 5 5 5 5 5 5 5 6 6 6 6 6 6 6 6 6 7 7
5 4 4 3 4 4 2 4 3 8 7 6 5 4 3 3 3 4 4 4 4 3 3 3 4 4 5 6 6 6 6 6 6 6 7 7 6 7 7 7 7 7 7 7 6 7 7 8 8
1 0 3 3 2 2 3 4 2 4 4 4 2 1 2 3 4 4 4 4 3 4 4 5 6 7 7 8 8 8 8 8 7 8 9 8 8 8 8 7 7 7 7 7 7 8 8 8 8
Wind_Direction
157 152 154 172 106 24 283 279 58 53 52 60 76 85 86 70 138 155 134 144 142 149 155 153 151 150 150 149 148 145 143 141 139 137 135 133 132 131 131 131 131 132 132 131 131 131 130 129 128
159 157 151 160 73 356 297 330 24 78 134 122 82 77 78 72 86 107 122 145 144 148 152 153 152 152 153 153 152 150 148 147 145 144 142 141 140 140 139 139 139 140 140 141 141 140 140 141 141
173 174 154 103 6 262 291 317 1 52 109 96 82 60 75 107 109 120 144 144 141 146 151 156 155 155 156 156 156 155 154 152 152 150 149 149 148 148 148 148 149 150 152 153 155 155 156 158 162
155 132 77 83 234 250 261 291 334 57 56 66 97 67 60 109 121 136 142 145 144 148 153 159 157 158 159 160 161 161 159 159 158 158 158 157 157 158 158 159 161 163 165 167 169 172 174 178 185
115 112 80 287 251 251 258 273 300 49 78 84 97 89 50 54 123 137 147 150 149 151 157 162 161 162 163 164 165 166 165 165 165 166 167 167 168 168 170 171 174 177 179 181 185 188 191 196 202
114 97 102 246 252 263 251 224 168 90 103 106 102 102 96 130 136 148 152 154 154 156 160 164 165 166 167 169 170 171 171 171 172 174 176 177 179 181 183 185 188 191 194 197 200 203 205 209 214
160 146 217 234 261 265 243 213 152 145 135 141 128 108 131 153 152 154 154 153 154 158 162 166 169 170 172 174 175 177 177 179 180 182 185 187 190 193 196 199 201 204 207 209 212 214 217 219 221
162 125 269 262 266 267 235 188 138 142 142 136 133 139 168 180 157 153 152 152 155 161 167 170 170 172 174 178 181 183 185 186 188 191 193 196 200 204 208 211 215 217 218 219 221 223 225 226 227
136 92 253 247 252 271 245 196 125 110 116 142 158 165 170 164 150 148 150 152 159 167 174 175 174 174 176 179 187 189 192 194 196 199 202 203 208 212 217 222 225 227 228 227 226 227 230 231 233
130 189 241 239 247 259 251 214 155 129 128 133 134 141 149 157 156 157 162 167 172 175 181 181 180 179 179 186 190 193 197 201 202 204 207 208 210 216 224 230 233 235 235 233 231 229 231 233 234
202 224 258 269 266 256 236 219 155 141 179 184 168 164 164 167 168 169 172 175 178 179 180 183 184 182 184 192 187 194 202 203 208 210 211 213 216 224 232 234 241 242 240 236 235 232 229 228 227
273 273 273 277 286 286 245 210 172 183 203 191 176 168 170 174 180 178 175 177 177 179 184 183 185 184 189 192 189 192 200 202 208 215 214 211 214 220 226 229 234 231 228 223 226 223 226 229 230
278 280 295 296 308 297 303 283 239 242 192 169 168 161 172 177 181 179 173 171 176 183 185 183 183 184 187 190 193 196 202 205 209 210 212 209 210 218 222 226 223 217 213 216 223 224 229 230 233
282 301 303 301 305 303 320 317 337 256 164 158 166 168 166 158 155 144 146 161 175 184 186 184 185 184 180 182 186 190 195 198 199 204 206 203 204 203 203 212 213 209 205 204 211 220 226 227 229
307 320 317 302 297 288 353 325 279 215 161 166 171 163 131 102 80 83 104 101 112 183 186 180 183 180 175 174 177 181 183 171 181 184 180 178 186 190 188 197 216 222 215 207 211 226 222 231 238
336 339 305 288 285 280 192 261 280 191 147 157 159 144 116 84 67 62 55 58 37 30 11 228 172 167 176 167 163 157 146 142 155 150 148 158 168 172 167 171 213 225 212 200 217 229 239 251 252
344 294 281 294 294 279 159 238 321 88 132 134 124 108 93 74 57 54 52 46 62 53 32 333 19 71 42 143 118 108 122 139 138 133 137 150 157 159 155 168 185 164 130 154 229 203 210 252 268
263 270 287 298 318 38 79 70 44 64 95 89 85 84 83 75 64 61 62 54 51 42 43 357 25 19 11 0 42 21 52 117 157 155 161 165 164 159 150 156 155 130 119 99 110 211 233 240 261
251 286 301 302 334 58 76 72 48 53 67 69 72 75 80 80 74 64 63 70 61 37 61 58 53 5 290 219 119 214 227 220 217 204 181 171 165 161 158 164 152 137 139 169 182 174 275 285 299
301 349 336 329 1 52 71 67 56 52 59 67 75 79 77 67 64 61 57 65 82 86 91 101 81 342 20 203 201 225 215 241 238 239 201 188 173 170 164 169 170 159 153 140 147 145 144 267 74
348 25 7 344 10 37 74 36 39 48 54 54 50 50 59 64 58 49 54 60 61 58 57 84 89 65 4 309 336 318 31 20 7 327 251 219 196 184 173 182 180 178 173 185 189 168 162 203 270
319 320 62 41 51 351 49 53 7 29 42 45 43 41 41 37 43 49 51 50 47 44 44 54 60 52 13 5 40 103 102 74 278 271 272 258 225 208 198 198 197 192 187 193 202 181 173 170 228
228 22 39 33 78 45 24 89 317 6 37 36 45 54 52 51 53 57 56 56 51 49 49 42 45 38 20 22 27 41 43 333 305 329 336 319 303 278 247 213 202 203 199 202 204 194 195 189 198
84 44 29 39 58 26 332 108 299 325 58 63 59 63 71 77 71 66 63 63 58 52 52 48 45 34 21 22 20 21 19 1 0 355 344 327 315 307 307 272 227 214 208 212 215 208 208 209 213
47 68 21 356 3 271 257 116 238 251 124 126 106 79 82 98 100 90 75 71 72 70 64 59 55 38 24 24 19 13 6 3 358 341 334 332 326 319 315 314 268 242 233 227 225 224 225 219 219
285 128 149 221 241 260 355 148 237 184 140 116 129 142 167 171 154 144 146 150 149 133 116 98 80 45 17 17 2 353 351 344 330 326 325 325 312 299 307 312 299 276 253 246 237 238 237 231 227
7 337 178 154 168 76 267 293 282 210 234 229 172 159 188 175 167 165 174 183 184 180 187 182 167 207 285 299 301 306 309 309 306 307 310 307 305 304 310 307 304 296 281 265 251 247 247 240 236
111 131 59 68 73 341 312 220 230 212 220 215 194 191 228 202 179 189 200 205 208 205 203 198 194 217 244 260 269 270 273 275 278 287 293 289 288 292 298 298 297 295 289 276 262 256 253 248 246
4 33 82 101 145 149 256 266 246 203 200 193 203 215 231 229 233 241 237 226 223 218 211 218 228 238 248 250 248 254 259 260 262 264 268 270 272 277 281 284 285 284 283 277 266 259 257 251 252
70 41 132 129 299 135 154 266 289 183 189 186 208 254 288 283 269 258 255 259 259 255 250 248 248 248 249 248 244 245 250 253 256 258 260 261 263 265 265 266 273 277 279 276 266 264 266 254 253
Height
1515 1515 1516 1518 1519 1523 1518 1499 1486 1482 1483 1484 1482 1485 1489 1494 1499 1507 1503 1504 1509 1512 1516 1520 1523 1525 1526 1528 1529 1530 1531 1533 1534 1535 1537 1538 1539 1540 1541 1542 1543 1544 1545 1546 1547 1547 1548 1549 1549
1515 1515 1517 1518 1521 1529 1516 1496 1490 1484 1485 1484 1485 1488 1491 1495 1496 1498 1501 1506 1509 1512 1515 1518 1522 1524 1526 1527 1529 1530 1531 1533 1534 1535 1537 1538 1539 1540 1541 1542 1543 1544 1545 1546 1547 1548 1548 1549 1550
1515 1515 1517 1517 1522 1525 1514 1495 1491 1487 1484 1482 1487 1490 1493 1497 1498 1499 1502 1506 1510 1512 1515 1518 1521 1523 1525 1526 1528 1529 1531 1532 1534 1535 1536 1538 1539 1540 1541 1542 1543 1544 1545 1546 1546 1547 1548 1549 1549
1514 1516 1517 1520 1521 1510 1502 1493 1489 1489 1487 1486 1488 1493 1496 1499 1499 1501 1504 1507 1509 1512 1514 1517 1520 1522 1524 1526 1527 1529 1530 1532 1533 1535 1536 1537 1538 1539 1540 1541 1542 1543 1544 1544 1545 1546 1547 1548 1548
1513 1514 1518 1523 1516 1502 1494 1490 1489 1488 1488 1489 1488 1494 1498 1499 1500 1502 1504 1507 1509 1511 1514 1516 1519 1521 1523 1524 1526 1528 1529 1531 1532 1534 1535 1536 1537 1538 1539 1540 1541 1542 1542 1543 1544 1544 1545 1546 1547
1511 1512 1523 1526 1512 1499 1492 1489 1489 1490 1490 1491 1491 1495 1499 1499 1500 1502 1505 1507 1509 1510 1513 1515 1518 1520 1522 1523 1525 1526 1528 1529 1531 1532 1534 1535 1536 1537 1538 1538 1539 1540 1541 1541 1542 1542 1543 1544 1544
1510 1512 1519 1514 1509 1500 1490 1487 1488 1490 1489 1490 1490 1495 1500 1501 1501 1503 1505 1507 1509 1510 1512 1514 1516 1518 1520 1522 1524 1525 1527 1528 1529 1531 1532 1533 1534 1535 1536 1537 1537 1538 1539 1539 1540 1540 1541 1541 1542
1505 1508 1512 1511 1507 1498 1486 1485 1487 1489 1490 1490 1490 1492 1496 1499 1501 1503 1505 1507 1508 1510 1511 1513 1515 1517 1519 1521 1523 1524 1526 1527 1528 1529 1530 1531 1532 1533 1534 1535 1536 1536 1537 1537 1538 1538 1539 1539 1540
1503 1511 1516 1508 1502 1493 1485 1484 1486 1487 1488 1489 1488 1487 1489 1495 1498 1501 1503 1505 1507 1509 1510 1512 1514 1516 1518 1520 1522 1523 1524 1525 1526 1527 1528 1529 1530 1531 1532 1533 1533 1534 1534 1535 1535 1536 1536 1537 1537
1499 1511 1504 1494 1490 1488 1484 1483 1484 1487 1488 1488 1486 1486 1487 1491 1495 1497 1498 1501 1503 1506 1508 1511 1513 1515 1517 1519 1520 1522 1523 1524 1525 1526 1527 1528 1529 1529 1530 1531 1531 1531 1532 1532 1533 1533 1533 1534 1534
1495 1498 1491 1486 1484 1483 1482 1481 1481 1484 1487 1483 1481 1482 1484 1487 1491 1493 1495 1498 1501 1505 1507 1510 1512 1514 1516 1517 1519 1520 1521 1522 1523 1524 1525 1526 1527 1527 1528 1528 1529 1529 1529 1529 1530 1530 1531 1531 1531
1494 1489 1487 1483 1481 1479 1478 1477 1479 1478 1477 1478 1478 1478 1481 1484 1488 1490 1493 1496 1500 1503 1506 1508 1511 1513 1515 1516 1518 1519 1520 1520 1521 1522 1523 1524 1524 1525 1525 1526 1526 1526 1527 1527 1527 1527 1528 1528 1528
1491 1486 1482 1480 1477 1476 1475 1475 1475 1475 1475 1477 1480 1481 1482 1484 1487 1490 1494 1498 1500 1502 1504 1506 1509 1511 1513 1514 1516 1517 1518 1519 1519 1520 1521 1521 1522 1522 1523 1523 1523 1524 1524 1524 1524 1524 1524 1525 1524
1489 1485 1481 1477 1475 1473 1474 1475 1475 1474 1474 1477 1479 1481 1484 1486 1488 1491 1495 1498 1500 1502 1504 1506 1508 1509 1510 1512 1513 1514 1516 1517 1517 1517 1518 1518 1518 1519 1519 1519 1520 1520 1520 1520 1520 1520 1520 1521 1521
1488 1487 1482 1475 1472 1471 1474 1479 1474 1472 1474 1477 1479 1482 1485 1487 1490 1493 1495 1498 1501 1503 1504 1505 1506 1507 1508 1509 1511 1512 1513 1514 1515 1515 1515 1515 1516 1516 1516 1516 1517 1517 1517 1516 1516 1516 1516 1516 1516
1489 1492 1495 1478 1471 1469 1478 1488 1474 1473 1474 1477 1480 1484 1486 1489 1491 1492 1494 1496 1499 1501 1504 1506 1505 1505 1507 1507 1507 1509 1511 1512 1512 1512 1512 1512 1513 1513 1513 1513 1513 1513 1513 1513 1513 1512 1512 1512 1512
1499 1504 1498 1484 1470 1468 1475 1486 1478 1475 1476 1480 1483 1486 1489 1490 1491 1491 1492 1496 1496 1497 1498 1500 1500 1501 1503 1504 1505 1507 1509 1510 1509 1510 1510 1510 1510 1510 1511 1510 1510 1509 1509 1509 1509 1509 1509 1509 1508
1507 1502 1495 1488 1474 1472 1480 1486 1483 1483 1482 1486 1489 1490 1490 1490 1491 1491 1492 1493 1494 1497 1497 1500 1497 1498 1499 1502 1503 1504 1506 1507 1507 1508 1508 1509 1509 1509 1508 1508 1507 1506 1506 1506 1506 1506 1505 1505 1505
1491 1493 1493 1484 1473 1477 1486 1490 1490 1489 1489 1491 1492 1492 1492 1491 1492 1494 1494 1492 1495 1498 1497 1495 1495 1496 1497 1499 1502 1503 1503 1503 1504 1505 1507 1507 1507 1506 1506 1506 1505 1504 1503 1503 1503 1503 1503 1502 1501
1486 1492 1491 1483 1475 1480 1490 1496 1497 1495 1496 1496 1495 1494 1494 1495 1494 1494 1495 1494 1494 1496 1494 1495 1497 1496 1493 1496 1500 1502 1501 1501 1501 1503 1505 1504 1504 1504 1503 1503 1502 1501 1501 1500 1500 1500 1499 1499 1498
1486 1489 1489 1488 1482 1483 1490 1502 1504 1503 1502 1500 1500 1498 1497 1496 1496 1496 1495 1495 1495 1496 1497 1496 1497 1496 1495 1498 1499 1500 1500 1500 1500 1501 1501 1502 1501 1501 1500 1500 1499 1499 1499 1498 1497 1497 1496 1496 1496
1491 1481 1481 1484 1494 1504 1499 1518 1512 1508 1507 1506 1506 1504 1502 1500 1499 1497 1497 1496 1496 1497 1498 1497 1497 1497 1498 1498 1499 1499 1498 1498 1498 1499 1499 1498 1498 1497 1497 1497 1496 1496 1495 1495 1494 1494 1493 1493 1492
1482 1477 1480 1485 1494 1506 1508 1518 1520 1510 1511 1511 1510 1508 1505 1504 1502 1500 1499 1499 1499 1499 1498 1498 1498 1498 1498 1498 1498 1497 1496 1496 1496 1496 1495 1495 1494 1494 1493 1492 1492 1492 1492 1491 1491 1490 1490 1489 1489
1475 1481 1488 1497 1505 1520 1515 1521 1523 1516 1513 1511 1510 1508 1507 1505 1503 1501 1501 1501 1501 1500 1500 1500 1499 1498 1497 1497 1496 1495 1494 1493 1492 1492 1491 1490 1489 1489 1488 1487 1487 1486 1486 1486 1486 1486 1486 1485 1485
1479 1499 1519 1522 1530 1528 1515 1520 1523 1513 1510 1510 1510 1509 1508 1506 1504 1503 1502 1502 1502 1502 1501 1501 1500 1498 1497 1496 1494 1493 1491 1490 1488 1487 1486 1485 1484 1484 1483 1482 1481 1481 1481 1481 1481 1481 1481 1481 1480
1483 1496 1521 1531 1532 1527 1519 1522 1520 1512 1511 1510 1509 1508 1508 1507 1505 1504 1503 1502 1502 1501 1501 1500 1498 1497 1496 1494 1493 1491 1489 1487 1485 1483 1481 1480 1479 1478 1477 1476 1476 1475 1475 1475 1475 1475 1475 1475 1475
1487 1494 1496 1513 1515 1527 1526 1523 1518 1513 1511 1510 1509 1509 1508 1507 1506 1505 1503 1502 1501 1500 1498 1497 1496 1495 1493 1492 1490 1488 1486 1483 1481 1479 1477 1476 1474 1473 1472 1471 1470 1469 1469 1469 1469 1468 1469 1469 1469
1483 1488 1501 1513 1525 1531 1526 1524 1522 1514 1511 1509 1509 1508 1508 1507 1506 1505 1503 1501 1499 1497 1496 1494 1493 1491 1489 1487 1485 1484 1482 1480 1478 1475 1473 1472 1470 1468 1467 1465 1464 1463 1462 1462 1462 1461 1462 1462 1462
1489 1492 1501 1512 1515 1528 1532 1528 1510 1510 1508 1508 1508 1508 1507 1506 1504 1503 1501 1498 1496 1494 1492 1491 1489 1487 1485 1483 1481 1479 1477 1475 1473 1471 1469 1467 1465 1463 1461 1460 1458 1457 1456 1456 1455 1455 1455 1455 1455
1488 1491 1499 1514 1516 1518 1529 1528 1507 1508 1508 1508 1508 1508 1506 1505 1503 1500 1497 1495 1493 1491 1489 1487 1485 1483 1481 1478 1476 1474 1472 1469 1467 1465 1463 1461 1459 1457 1455 1454 1452 1451 1450 1449 1448 1448 1448 1448 1448